Wind_Speed
33 33 31 28 28 28 31 33 32 29 28 29 26 22 19 18 24 28 28 29 31 35 38 39 39 39 38 37 36 35 34 34 34 33 33 31 30 31 32 33 34 34 36 38
33 30 26 28 31 31 33 33 31 29 30 30 28 26 24 23 25 27 29 32 35 39 42 42 41 41 40 39 38 38 37 36 36 35 35 34 34 34 36 37 38 38 39 41
28 24 28 31 30 30 31 31 29 29 30 32 33 32 27 25 25 28 32 35 39 43 44 43 42 42 40 39 39 39 39 40 40 39 37 36 35 36 38 39 40 41 42 44
27 28 31 32 30 28 27 26 27 28 32 34 35 37 32 30 29 31 34 36 40 43 43 43 42 40 38 38 39 40 41 42 42 41 37 36 36 38 39 39 40 42 44 45
27 29 30 29 27 26 24 22 22 25 29 32 34 37 34 32 35 36 38 39 41 43 43 40 36 34 34 37 40 41 42 42 42 39 37 36 37 38 39 40 41 42 42 44
27 32 32 28 25 22 20 20 22 25 27 26 22 28 26 24 31 38 41 41 42 42 40 36 33 33 35 39 41 42 43 43 41 40 37 36 36 37 39 40 40 42 43 44
31 35 34 32 28 24 22 22 23 24 23 18 14 20 15 15 23 29 32 33 34 36 36 35 33 34 38 41 43 45 44 43 41 40 38 36 36 37 39 40 41 42 44 45
31 34 32 29 26 23 23 23 23 23 21 17 17 19 14 17 20 21 21 23 24 27 30 31 32 35 39 42 43 43 41 41 39 38 37 36 37 38 40 42 43 44 45 46
30 30 26 24 21 21 21 22 22 24 24 24 21 19 18 21 21 21 21 21 22 24 28 31 33 37 40 42 41 40 39 37 36 36 36 37 39 41 43 45 46 47 48 48
26 29 28 26 25 26 25 22 24 26 27 26 23 19 19 22 24 26 28 27 26 28 30 34 37 39 40 39 38 37 36 33 33 35 36 39 42 44 46 47 49 49 50 51
27 30 32 30 27 27 28 29 29 28 26 24 24 22 22 23 24 25 28 29 30 31 33 35 38 39 40 39 36 34 31 31 33 35 38 42 45 47 49 50 51 52 53 55
32 33 34 32 27 25 28 32 33 32 28 25 24 26 26 28 28 29 31 33 35 36 36 38 40 40 41 40 35 30 29 32 35 39 42 45 48 50 52 53 53 55 57 60
37 37 35 34 31 29 30 31 32 31 29 28 28 30 31 32 33 34 36 38 40 41 42 41 41 42 43 37 31 31 32 35 39 43 46 49 51 53 55 56 57 59 62 64
40 39 38 37 38 37 34 33 33 32 31 30 31 33 36 38 39 39 40 42 43 44 43 42 41 41 40 35 34 35 36 40 43 46 49 52 54 55 57 59 62 64 65 65
40 40 40 40 40 42 41 39 38 37 37 37 37 39 42 44 45 45 46 47 46 44 41 38 36 36 38 39 39 40 42 44 47 49 52 55 57 60 62 64 65 66 65 63
42 41 40 40 40 42 45 47 46 43 42 43 45 47 48 49 48 49 50 50 45 40 35 35 38 41 43 44 45 46 47 49 50 52 54 57 58 60 61 62 61 61 60 59
44 43 42 41 40 40 44 47 49 48 48 48 48 48 48 48 48 48 49 47 44 40 39 41 43 46 47 48 49 49 50 51 52 52 53 53 53 54 55 55 55 56 56 56
44 45 45 43 41 39 40 43 46 47 48 49 51 51 50 48 47 46 47 47 47 47 47 47 48 49 49 49 49 49 50 50 50 49 49 49 49 50 52 53 53 53 53 53
38 39 38 37 36 36 34 35 37 39 41 43 45 48 50 50 50 50 50 50 50 50 50 50 50 49 49 48 48 48 48 47 46 45 45 46 47 49 49 50 50 50 49 48
32 34 35 35 35 36 35 34 35 37 39 40 42 44 45 46 46 47 48 49 50 50 50 50 49 49 48 48 47 45 44 43 42 42 42 43 44 45 45 46 46 45 45 44
26 28 30 31 32 33 33 32 31 33 36 37 40 42 44 46 46 46 46 46 47 47 48 48 47 46 45 44 43 42 41 39 39 38 39 40 41 42 43 43 42 42 42 42
21 22 23 25 25 26 26 26 26 27 29 31 34 37 40 42 43 44 45 45 45 44 44 43 42 42 41 41 40 38 37 36 36 37 38 39 39 39 39 39 40 40 40 40
19 19 19 20 22 23 23 25 26 26 26 27 29 32 35 37 39 40 41 41 41 40 38 38 38 38 37 36 35 34 33 34 35 35 36 36 37 37 38 39 39 38 37 35
16 17 19 19 21 23 24 24 26 26 27 28 29 31 32 34 35 35 35 35 35 35 36 36 35 34 33 32 31 31 32 32 32 33 34 35 36 37 37 37 35 33 31 29
15 16 18 20 22 24 25 27 27 28 29 29 30 31 32 32 32 32 32 32 32 32 31 30 29 28 28 28 29 29 29 30 31 32 34 35 35 35 33 31 30 28 27 26
15 17 19 20 23 25 26 27 28 28 28 28 28 29 29 29 29 28 27 26 24 23 22 22 22 23 23 24 25 26 28 30 32 33 33 33 32 30 28 27 26 25 24 24
Wind_Direction
223 225 226 229 231 232 234 236 236 231 225 230 229 233 226 221 228 236 248 260 270 277 282 287 291 295 299 303 306 308 304 300 297 295 294 290 289 289 290 291 291 292 292 292
226 226 224 225 226 226 229 231 231 226 223 231 233 237 238 233 230 234 246 258 268 275 280 287 291 294 298 302 304 303 300 296 291 288 286 283 280 282 283 284 285 286 288 289
229 223 222 223 225 226 230 232 229 223 218 228 236 239 238 239 236 234 241 253 264 273 279 284 288 292 296 298 299 299 297 293 290 287 284 280 277 277 279 280 282 283 285 285
219 215 220 221 220 220 225 227 226 224 224 226 236 243 236 236 236 234 239 250 261 268 274 279 284 288 291 293 293 295 293 290 288 286 284 279 278 279 280 280 281 283 284 287
216 215 219 220 219 219 214 216 225 234 239 238 236 246 246 239 240 241 244 250 258 265 269 274 280 284 286 287 288 291 292 290 289 288 286 282 279 281 283 283 284 288 292 294
211 211 213 209 208 210 210 219 232 241 245 248 247 251 251 242 242 244 247 251 256 261 265 269 274 278 280 280 282 286 288 289 289 289 287 283 281 282 284 285 288 291 294 295
207 210 211 207 204 202 209 221 233 240 244 246 241 246 240 233 235 243 247 249 250 253 257 263 270 274 274 274 277 281 284 288 289 289 287 285 284 284 284 287 290 292 293 294
209 212 213 213 212 207 213 224 234 243 247 248 236 240 244 246 245 250 256 257 255 254 257 261 266 268 268 269 274 279 284 287 288 287 286 284 284 285 287 289 291 292 293 294
212 211 208 208 207 216 224 234 244 251 254 257 248 243 249 254 259 263 268 269 266 263 262 262 262 263 265 270 274 279 283 284 284 284 284 284 285 286 288 289 290 292 293 294
217 211 203 203 208 217 225 234 244 249 254 257 255 252 251 251 257 260 264 268 269 269 268 266 267 268 271 275 276 278 281 281 282 282 283 284 285 286 287 289 290 292 293 294
217 216 206 209 218 226 226 229 236 243 247 252 257 256 252 253 255 257 261 265 269 272 273 273 275 277 280 279 280 281 278 280 281 282 282 283 284 285 286 287 289 291 293 295
221 222 215 212 221 233 232 231 232 235 240 245 252 254 253 255 258 262 264 267 270 272 274 276 279 280 284 284 280 278 277 279 280 280 281 282 283 284 286 287 289 291 293 296
224 226 224 217 218 224 225 227 229 232 235 239 245 253 261 264 265 266 267 268 270 271 273 276 280 282 286 283 278 278 277 277 278 278 279 281 282 284 285 287 289 291 293 294
225 228 229 225 222 225 225 224 227 232 237 241 247 256 265 270 270 270 270 270 271 272 273 277 281 283 285 281 282 281 279 278 278 278 279 280 282 284 285 287 289 290 292 294
232 232 234 233 230 230 234 236 240 242 244 248 253 260 266 269 270 271 272 272 272 273 274 278 283 287 289 290 289 286 283 282 281 280 280 281 282 284 286 287 289 291 292 294
240 239 239 241 240 238 241 246 252 256 259 260 261 263 266 267 268 269 270 270 270 271 275 282 286 288 289 290 289 288 286 285 284 283 283 283 284 286 287 288 290 291 293 294
248 248 247 248 249 250 250 250 252 254 256 258 259 261 262 264 265 268 270 271 272 277 285 288 288 288 288 289 289 289 288 287 287 287 287 287 287 287 288 290 291 293 295 297
249 251 253 255 255 256 255 252 251 251 252 253 255 257 260 263 266 270 273 277 283 287 290 289 289 289 290 290 291 291 290 290 290 289 289 289 288 288 289 291 293 296 298 298
246 249 251 250 249 250 249 250 251 251 251 252 254 257 259 262 266 271 274 279 282 285 287 289 292 294 295 295 295 294 293 292 291 289 288 288 288 290 292 294 296 298 299 299
246 246 248 250 252 254 254 254 253 253 254 254 256 258 261 264 267 271 274 277 281 284 287 290 292 294 294 295 295 294 293 291 290 290 290 290 292 294 295 297 298 300 301 301
248 249 251 253 255 256 257 260 261 260 260 260 260 262 264 267 270 273 277 279 281 283 286 288 290 291 292 293 294 293 294 294 294 294 294 296 297 298 298 299 301 302 303 304
249 253 253 253 256 260 261 263 265 267 266 265 265 265 267 268 271 273 275 278 281 283 285 286 287 289 291 292 293 293 294 295 296 297 298 299 300 300 301 302 303 305 306 307
261 263 265 264 263 267 269 270 271 271 270 269 268 268 268 269 271 272 275 277 280 282 284 286 288 290 291 292 293 294 296 297 299 300 300 301 302 304 305 306 307 307 307 307
269 270 272 271 270 271 272 272 272 272 271 271 270 270 271 273 274 275 277 278 280 282 284 286 289 290 291 292 294 296 299 301 302 303 304 305 306 307 307 307 307 307 306 307
270 272 274 274 274 273 273 274 275 274 274 273 273 274 275 276 277 278 280 282 282 284 285 287 288 289 292 295 297 300 303 305 306 307 307 308 308 307 307 306 306 307 307 307
276 277 277 277 278 279 280 280 280 279 277 276 275 275 276 278 279 281 283 284 284 283 284 286 287 292 298 302 304 307 309 310 310 310 310 310 309 309 309 309 310 311 311 310
Height
5822 5827 5832 5837 5840 5844 5845 5847 5850 5855 5856 5855 5855 5857 5861 5863 5864 5864 5864 5863 5863 5862 5863 5863 5863 5862 5862 5862 5861 5859 5858 5856 5854 5852 5851 5851 5850 5849 5848 5846 5844 5842 5840 5838
5817 5822 5828 5829 5832 5835 5837 5839 5843 5848 5851 5849 5849 5851 5853 5855 5857 5858 5859 5859 5858 5857 5857 5857 5857 5856 5856 5855 5854 5853 5852 5850 5847 5846 5846 5845 5843 5842 5840 5838 5836 5834 5832 5829
5812 5819 5820 5822 5825 5828 5831 5834 5838 5841 5843 5842 5843 5845 5848 5850 5851 5854 5855 5855 5853 5852 5851 5851 5851 5851 5850 5849 5848 5846 5844 5843 5841 5839 5839 5837 5836 5834 5832 5830 5828 5825 5823 5820
5806 5810 5812 5815 5819 5822 5826 5830 5832 5834 5836 5836 5838 5837 5843 5845 5846 5847 5848 5849 5847 5846 5846 5846 5847 5847 5845 5844 5841 5840 5838 5836 5834 5832 5830 5828 5827 5825 5823 5821 5819 5816 5813 5810
5801 5805 5807 5811 5815 5818 5821 5824 5826 5828 5829 5831 5833 5833 5837 5840 5841 5842 5842 5843 5842 5841 5840 5840 5841 5841 5840 5838 5836 5834 5831 5828 5826 5823 5823 5821 5819 5817 5815 5813 5810 5807 5805 5802
5796 5799 5801 5806 5810 5813 5816 5819 5821 5823 5824 5826 5829 5828 5830 5833 5833 5833 5834 5835 5835 5834 5833 5834 5835 5835 5834 5832 5830 5828 5824 5822 5819 5817 5815 5814 5812 5811 5808 5805 5802 5800 5797 5794
5789 5792 5795 5799 5802 5806 5810 5813 5816 5817 5818 5821 5823 5821 5824 5824 5824 5824 5825 5826 5827 5827 5827 5828 5828 5828 5827 5825 5822 5819 5817 5814 5812 5810 5808 5807 5805 5804 5801 5798 5795 5792 5789 5785
5784 5788 5792 5795 5799 5802 5805 5808 5811 5813 5814 5816 5817 5817 5819 5818 5818 5818 5819 5819 5820 5821 5821 5821 5821 5820 5818 5816 5814 5811 5809 5806 5804 5803 5801 5800 5798 5795 5793 5790 5787 5783 5780 5776
5780 5787 5791 5794 5796 5799 5801 5803 5806 5808 5808 5809 5811 5813 5813 5812 5812 5812 5812 5813 5813 5814 5814 5814 5813 5811 5809 5807 5805 5803 5801 5799 5797 5796 5794 5792 5789 5787 5784 5781 5777 5773 5769 5765
5776 5782 5787 5789 5790 5791 5794 5798 5800 5801 5801 5802 5805 5806 5807 5806 5806 5806 5806 5806 5807 5807 5807 5806 5804 5802 5799 5798 5796 5794 5792 5791 5789 5788 5785 5783 5780 5778 5774 5771 5767 5763 5758 5754
5768 5774 5780 5783 5784 5785 5788 5790 5791 5793 5794 5796 5797 5801 5800 5800 5800 5800 5800 5800 5799 5799 5799 5798 5796 5794 5791 5789 5786 5784 5783 5783 5781 5779 5777 5774 5771 5768 5764 5760 5756 5751 5747 5742
5761 5766 5772 5777 5780 5780 5781 5782 5783 5785 5787 5789 5790 5794 5792 5793 5793 5794 5794 5793 5792 5791 5790 5789 5788 5786 5783 5781 5779 5777 5777 5775 5774 5771 5768 5765 5761 5757 5753 5749 5744 5739 5734 5729
5755 5759 5765 5771 5775 5774 5773 5774 5775 5777 5779 5781 5782 5785 5784 5785 5787 5787 5787 5786 5785 5784 5783 5781 5779 5777 5775 5773 5771 5770 5769 5767 5765 5762 5758 5754 5750 5746 5741 5736 5731 5726 5721 5715
5749 5753 5758 5762 5765 5766 5766 5767 5768 5770 5771 5772 5774 5776 5776 5777 5778 5779 5778 5777 5776 5775 5774 5772 5770 5769 5767 5765 5763 5761 5759 5757 5754 5751 5746 5742 5738 5733 5728 5723 5718 5712 5706 5701
5744 5747 5750 5754 5758 5760 5761 5761 5760 5761 5763 5765 5768 5769 5770 5770 5770 5769 5768 5767 5766 5765 5764 5762 5760 5758 5757 5755 5753 5751 5749 5746 5742 5738 5734 5729 5725 5720 5714 5709 5703 5697 5692 5686
5737 5740 5744 5747 5750 5753 5754 5753 5752 5753 5754 5757 5760 5761 5762 5762 5761 5760 5758 5757 5755 5754 5752 5752 5751 5750 5748 5746 5743 5740 5737 5733 5729 5725 5720 5715 5711 5705 5700 5694 5688 5682 5677 5672
5728 5732 5735 5738 5740 5743 5743 5743 5744 5746 5747 5749 5751 5753 5753 5752 5751 5750 5748 5747 5744 5743 5742 5742 5741 5739 5737 5734 5731 5727 5724 5720 5715 5711 5706 5701 5696 5691 5685 5679 5674 5669 5663 5658
5720 5722 5725 5728 5732 5732 5731 5731 5734 5736 5738 5740 5742 5742 5743 5743 5741 5739 5738 5736 5734 5732 5731 5730 5729 5727 5724 5721 5717 5713 5709 5705 5701 5696 5691 5687 5682 5677 5671 5666 5661 5656 5650 5645
5711 5714 5716 5718 5720 5721 5722 5722 5724 5726 5727 5730 5732 5732 5732 5732 5731 5729 5728 5726 5724 5722 5720 5718 5715 5713 5710 5707 5703 5700 5695 5691 5687 5683 5679 5674 5669 5664 5659 5654 5649 5643 5638 5632
5703 5705 5708 5709 5711 5712 5714 5715 5715 5718 5718 5721 5721 5721 5721 5721 5721 5720 5718 5716 5714 5712 5709 5707 5704 5702 5699 5695 5692 5688 5683 5679 5675 5671 5666 5662 5657 5652 5647 5642 5636 5631 5625 5620
5697 5698 5699 5700 5701 5703 5706 5706 5707 5710 5711 5712 5711 5710 5710 5709 5709 5708 5707 5705 5704 5702 5699 5697 5695 5692 5689 5685 5681 5677 5672 5668 5664 5659 5655 5651 5646 5641 5635 5630 5625 5620 5615 5609
5690 5691 5692 5693 5695 5698 5698 5698 5700 5700 5701 5701 5700 5700 5699 5699 5698 5698 5696 5695 5694 5692 5690 5688 5686 5683 5679 5675 5671 5667 5663 5658 5654 5649 5645 5640 5635 5630 5625 5620 5615 5609 5604 5599
5685 5686 5686 5688 5690 5690 5690 5691 5691 5692 5692 5692 5691 5690 5689 5689 5688 5688 5687 5686 5684 5683 5681 5679 5676 5673 5670 5666 5662 5658 5654 5649 5645 5640 5635 5630 5625 5620 5615 5610 5604 5599 5594 5589
5680 5680 5681 5681 5681 5682 5682 5682 5682 5682 5683 5682 5682 5681 5680 5679 5679 5678 5678 5676 5675 5674 5672 5670 5667 5664 5661 5657 5653 5649 5645 5640 5636 5631 5626 5621 5616 5610 5605 5600 5595 5590 5585 5581
5676 5675 5675 5675 5675 5674 5674 5674 5674 5674 5674 5673 5672 5671 5671 5670 5670 5669 5668 5667 5666 5665 5663 5661 5659 5656 5653 5649 5645 5641 5637 5632 5628 5623 5617 5612 5607 5602 5596 5591 5587 5582 5578 5574
5671 5671 5670 5669 5668 5667 5667 5666 5665 5665 5664 5664 5663 5662 5662 5661 5661 5661 5660 5659 5658 5657 5656 5654 5652 5649 5646 5642 5638 5634 5630 5625 5620 5615 5609 5603 5598 5593 5588 5584 5579 5575 5571 5567